Regional Weather Roundup
Issued by NWS

Home | Current Version | Previous Version | Graphics & Text | Print | Product List | Glossary On
Versions: 1 2 3 4 5 6 7 8 9 10 11 12 13 14 15 16 17 18 19 20 21 22 23 24 25 26 27 28 29 30 31 32 33 34 35 36 37 38 39 40 41 42 43 44 45 46 47 48 49 50
000
ASUS43 KIND 261209
RWRIN

WEATHER ROUNDUP FOR INDIANA
NATIONAL WEATHER SERVICE INDIANAPOLIS IN
800 AM EDT SAT JUL 26 2014

NOTE: "FAIR" INDICATES FEW OR NO CLOUDS BELOW 12,000 FEET WITH NO
SIGNIFICANT WEATHER AND/OR OBSTRUCTIONS TO VISIBILITY.

* - STATION DOES NOT REPORT WEATHER SUCH AS PRECIPITATION OR FOG.

+ - STATION NOT QUALITY CONTROLLED BY THE NATIONAL WEATHER SERVICE.
    USE DATA WITH CAUTION...ESPECIALLY DEWPOINT AND RELATIVE
    HUMIDITY OBSERVATIONS.

INZ001>003-010>013-019-020-261300-
NORTHWEST INDIANA

CITY           SKY/WX    TMP DP  RH WIND       PRES   REMARKS
GARY /AIRPORT/ PTSUNNY   70  61  73 S3        29.86F
KNOX *+        SUNNY     62  59  90 S3        29.88S
LA PORTE +     SUNNY     62  60  94 CALM      29.89S
6HR MIN TEMP:  59; 6HR MAX TEMP:  63;

MICHIGAN CITY+ SUNNY     64  61  88 S3        29.87S
MONTICELLO +   MOSUNNY   67  61  80 S6        29.89S
RENSSELAER +   PTSUNNY   68  64  88 S7        29.88S
VALPARAISO     PTSUNNY   65  60  84 S5        29.88S
6HR MIN TEMP:  62; 6HR MAX TEMP:  65;


$$

LMZ046-743>745-261300-
SOUTHERN LAKE MICHIGAN

STATION/POSITION TIME  TEMP WIND        PRES
                       AIR  DIR/SP/G
                 (UTC) (F)  (DEG/KT/KT) (MB)
MICHIGAN CITY    1200   66  170/  8/ 12   N/A

$$

INZ004-005-014>016-021>024-261300-
NORTH CENTRAL INDIANA

CITY           SKY/WX    TMP DP  RH WIND       PRES   REMARKS
ELKHART        MOSUNNY   63  59  88 CALM      29.90
GOSHEN         SUNNY     65  60  84 SE5       29.90S
6HR MIN TEMP:  60; 6HR MAX TEMP:  65;

LOGANSPORT +   SUNNY     68  59  73 S7        29.91S
PERU/GRISSOM   MOSUNNY   69  64  83 SW8       29.91R
6HR MIN TEMP:  66; 6HR MAX TEMP:  69;

ROCHESTER +    MOSUNNY   68  61  77 S3        29.90S
SOUTH BEND     SUNNY     65  59  81 SE5       29.89F
6HR MIN TEMP:  63; 6HR MAX TEMP:  65;

WARSAW +       SUNNY     63  61  94 CALM      29.91R

$$

INZ006>009-017-018-025>027-261300-
NORTHEAST INDIANA

CITY           SKY/WX    TMP DP  RH WIND       PRES   REMARKS
ANGOLA *+      SUNNY     63  59  88 CALM      29.92S
AUBURN +       SUNNY     63  59  88 CALM      29.92S
FORT WAYNE     MOSUNNY   65  61  87 SE5       29.92S
6HR MIN TEMP:  59; 6HR MAX TEMP:  65;

HUNTINGTON +   SUNNY     65  61  87 SE3       29.91S
6HR MIN TEMP:  60; 6HR MAX TEMP:  65;


$$

INZ028-029-035-036-043>045-051>053-261300-
WEST CENTRAL INDIANA

CITY           SKY/WX    TMP DP  RH WIND       PRES   REMARKS
GREENCASTLE +  CLOUDY    68  61  77 CALM      29.94R
LAFAYETTE      CLOUDY    67  62  84 SW6       29.90S
6HR MIN TEMP:  67; 6HR MAX TEMP:  68; 6HR PCP: TRACE;

TERRE HAUTE    PTSUNNY   69  60  73 S8        29.92R
6HR MIN TEMP:  67; 6HR MAX TEMP:  70;


$$

INZ030>032-037>040-046>048-054>057-064-065-261300-
CENTRAL INDIANA

CITY           SKY/WX    TMP DP  RH WIND       PRES   REMARKS
CP ATTERBURY + CLOUDY    68  61  77 CALM      29.96R
COLUMBUS       CLOUDY    68  63  83 S6        29.96S
INDIANAPOLIS   TSTM      69  60  73 S10       29.91S
-EAGLE CREEK   CLOUDY    69  59  70 CALM      29.93R THUNDER HAZE
6HR MIN TEMP:  68; 6HR MAX TEMP:  70;

KOKOMO *+      MOSUNNY   70  61  73 SW9       29.92R
MARION +       PTSUNNY   68  59  74 SW8       29.93R
MT COMFORT *+  PTSUNNY   68  68 100 W5        29.96R
SHELBYVILLE    CLOUDY    69  62  78 S9        29.94R
6HR MIN TEMP:  67; 6HR MAX TEMP:  70;

ZIONSVILLE +   CLOUDY    70  58  66 S7        29.94S
6HR MIN TEMP:  68; 6HR MAX TEMP:  70;


$$

INZ033-034-041-042-049-050-058-059-261300-
EAST CENTRAL INDIANA

CITY           SKY/WX    TMP DP  RH WIND       PRES   REMARKS
MUNCIE         MOSUNNY   69  59  70 SW9       29.93R
6HR MIN TEMP:  67; 6HR MAX TEMP:  69;


$$

INZ060-061-067>069-081>083-085>088-261300-
SOUTHWEST INDIANA

CITY           SKY/WX    TMP DP  RH WIND       PRES   REMARKS
EVANSVILLE     SUNNY     68  62  81 SW10      29.95F
6HR MIN TEMP:  64; 6HR MAX TEMP:  68;

HUNTINGBURG *+ SUNNY     66  61  82 SW5       29.96S
6HR MIN TEMP:  61; 6HR MAX TEMP:  66;

WASHINGTON +   PTSUNNY   64  63  97 SE5       29.93S
6HR MIN TEMP:  61; 6HR MAX TEMP:  64;


$$

INZ062-063-066-070>080-084-089>092-261300-
SOUTH CENTRAL AND SOUTHEAST INDIANA

CITY           SKY/WX    TMP DP  RH WIND       PRES   REMARKS
BEDFORD +      MOSUNNY   66  59  77 S5        29.95S
BLOOMINGTON    CLOUDY    68  60  75 S6        29.95R
6HR MIN TEMP:  64; 6HR MAX TEMP:  69;

SEYMOUR +      PTSUNNY   64  52  63 S3        29.96R

$$




USA.gov is the U.S. government's official web portal to all federal, state and local government web resources and services.